Theta_e
337 345 343 344 349 343 344 349 346 350 353 350 351 345 341 346 341 337 351 362 363 363 358 352 351 350 348 349 349 347 346 345 345 345 345 345 345 344 343 341 339 338 337 335 334 333 333 333 332 331 328 325 323 322 321 320 320 320 319 319 319 319 319 319 320 321 322 322 320 319 319 320 323 324 324 323 323 322 321 323 324 324 323 322 322 320 319
340 344 343 346 348 345 351 354 351 355 357 354 357 359 357 356 350 347 352 360 365 359 354 354 351 349 348 346 346 347 346 346 346 346 346 346 345 345 343 340 337 336 336 334 332 332 332 331 330 328 326 324 322 321 320 320 319 318 318 318 319 319 319 319 320 321 321 320 319 318 319 321 323 322 321 321 320 319 319 320 321 322 322 321 320 319 317
335 343 347 345 348 352 352 350 350 353 353 352 359 362 361 360 359 356 354 360 365 355 350 354 351 347 348 347 347 348 347 347 347 347 348 347 345 344 341 338 336 334 333 331 330 330 330 329 328 326 324 323 322 321 321 320 319 318 317 317 318 318 319 319 320 321 321 320 318 318 320 322 322 320 318 317 317 317 318 318 319 320 321 320 318 316 314
331 339 343 341 345 345 342 344 349 352 352 350 353 357 358 361 363 357 350 355 364 356 348 350 348 347 349 348 348 348 346 346 348 347 348 347 345 342 339 337 336 334 332 330 329 329 329 327 325 323 322 321 320 320 320 319 318 317 316 317 317 318 319 320 320 320 320 320 319 319 321 321 319 317 315 314 314 315 317 317 317 317 318 317 315 313 311
331 336 341 348 349 338 336 341 343 349 354 351 352 356 356 359 363 359 354 357 361 353 348 350 349 347 348 348 347 347 346 346 346 346 346 345 343 340 337 336 334 332 330 328 328 328 327 325 322 321 321 319 319 319 319 317 317 317 317 317 316 317 319 320 320 320 320 320 319 320 321 319 317 315 314 313 312 313 315 316 315 314 313 312 311 311 311
331 334 346 354 348 337 337 344 345 346 351 355 360 361 357 357 358 356 357 357 351 348 350 352 349 347 348 347 344 344 344 345 345 345 344 343 341 338 336 335 333 330 328 327 327 327 325 323 321 321 320 319 318 318 317 316 316 317 318 317 316 317 319 320 320 320 319 319 319 319 320 318 315 313 313 312 311 311 313 314 314 313 312 311 311 310 310
337 343 346 335 333 341 348 351 348 346 348 358 364 359 357 358 355 356 361 355 348 349 350 348 347 347 347 345 343 344 344 343 344 345 343 341 339 337 335 333 330 328 326 324 324 324 323 322 321 320 319 319 318 318 317 316 316 317 317 316 316 317 318 319 319 320 319 319 318 318 318 316 313 311 311 311 310 310 311 312 312 312 312 313 312 308 308
338 343 339 326 329 347 353 349 349 348 349 356 353 347 352 356 352 359 364 354 347 350 349 347 345 342 339 338 338 340 343 342 341 342 341 338 336 335 333 331 328 326 324 323 322 322 322 322 321 320 318 318 317 317 317 316 315 316 316 316 316 317 318 318 319 320 320 319 317 316 315 313 311 310 310 310 310 309 309 309 310 310 310 311 309 307 307
341 346 343 340 341 346 350 352 352 350 350 353 349 344 350 354 351 355 357 350 349 350 347 344 341 337 338 339 335 334 337 340 338 337 337 335 334 333 331 328 326 323 322 322 322 321 322 322 321 320 317 317 317 317 317 316 315 315 315 316 317 317 317 317 317 319 320 319 316 314 313 311 310 310 310 310 309 308 308 308 308 307 307 307 306 305 306
347 353 350 350 348 347 353 356 351 345 346 352 354 347 348 354 352 350 351 351 350 348 343 340 339 340 345 346 339 332 332 335 334 334 334 333 332 330 328 325 323 322 322 322 321 321 321 321 320 319 317 317 316 317 317 316 315 315 315 316 316 315 315 315 315 318 319 318 315 313 312 311 310 310 310 310 309 309 308 307 306 305 305 305 305 305 305
346 352 351 350 347 346 354 355 346 341 341 348 350 346 347 353 351 348 349 350 349 346 342 339 341 346 351 351 342 332 329 331 331 332 332 331 328 326 324 322 322 322 322 321 321 321 320 319 319 317 316 317 317 317 318 316 315 316 316 316 316 314 314 314 315 317 319 317 315 313 313 311 311 310 310 310 310 309 307 306 305 305 305 305 305 305 305
350 354 349 346 344 344 348 346 341 340 341 342 342 342 345 350 347 346 349 349 347 343 338 338 342 345 351 349 337 327 326 328 329 331 331 329 326 324 323 322 321 321 320 320 319 319 319 318 318 316 316 316 317 317 317 315 316 316 315 315 315 314 314 314 315 317 318 316 315 314 313 312 311 310 310 310 310 309 308 306 305 305 306 305 305 305 305
352 352 345 340 344 347 343 338 337 338 340 342 344 344 346 347 346 346 347 347 343 338 337 342 341 336 336 335 328 324 325 327 328 330 330 327 325 323 322 321 321 320 320 319 319 318 318 317 317 317 317 317 317 317 316 315 316 316 315 315 315 314 313 314 316 318 318 316 315 315 315 314 313 311 310 310 310 310 309 307 305 305 306 305 305 305 305
345 350 347 340 342 345 337 333 336 338 340 347 350 344 340 342 344 344 342 342 341 337 337 340 336 329 327 326 325 325 324 324 326 327 326 325 324 323 322 321 321 320 319 319 319 318 317 316 316 317 317 317 317 317 316 315 316 316 315 315 314 313 314 315 317 318 318 318 317 317 317 316 316 315 313 312 310 310 310 308 306 305 305 305 305 305 305
342 349 345 338 342 342 332 332 340 343 345 350 349 339 333 335 337 337 337 336 336 334 333 331 328 326 325 324 324 323 323 323 324 324 324 324 323 323 323 321 320 320 319 319 318 317 317 317 316 317 318 317 318 318 316 315 316 316 315 314 313 313 314 315 314 314 315 316 315 316 317 317 317 317 316 315 313 312 311 310 309 306 305 305 305 305 305
345 350 344 341 345 339 329 333 342 343 340 341 339 335 333 333 332 333 335 333 330 330 329 327 326 325 324 323 323 323 323 322 322 322 323 323 323 323 322 321 320 320 319 319 318 317 318 317 317 317 318 318 319 318 316 315 316 315 314 314 312 312 314 314 312 311 311 311 312 312 313 314 314 314 315 316 316 315 313 312 310 308 306 305 305 305 305
339 345 343 342 342 334 328 331 333 331 331 331 330 330 333 334 331 330 332 331 328 327 327 327 327 325 324 324 323 322 322 321 320 321 321 322 322 322 320 320 320 319 319 319 318 317 317 317 317 317 317 317 318 317 316 315 315 314 313 313 311 311 314 314 312 311 311 310 311 311 311 311 312 313 313 313 315 316 315 314 312 310 308 306 305 306 306
334 338 335 335 336 332 328 328 326 326 328 328 328 329 332 333 331 329 329 328 327 327 327 327 328 326 324 324 323 322 322 320 318 319 320 320 321 321 320 320 320 319 320 319 318 318 317 317 316 316 317 316 316 316 316 315 314 313 313 312 311 310 313 314 313 312 312 312 311 311 312 312 312 311 311 311 311 314 315 315 314 312 309 307 306 306 306
340 342 334 332 334 332 329 328 327 327 329 327 327 329 330 330 330 329 328 328 327 327 328 328 329 326 325 326 324 324 323 320 318 318 319 320 320 320 320 320 319 320 320 318 318 319 318 317 316 315 315 315 314 315 315 314 313 313 313 313 311 311 312 314 313 313 313 313 312 311 312 311 310 310 310 310 310 312 313 314 315 314 311 308 307 306 307
343 342 333 331 333 331 330 331 329 328 329 327 327 327 327 328 329 327 326 327 328 328 328 328 329 327 326 327 327 326 323 320 317 317 318 319 320 320 320 320 319 319 318 317 317 318 317 317 316 314 314 315 315 315 315 313 313 313 312 313 313 312 311 312 313 313 312 313 312 311 311 310 309 310 310 310 310 310 310 312 314 313 311 307 307 307 308
337 335 331 331 333 330 329 329 329 328 328 327 327 326 326 327 329 328 326 325 325 326 326 325 327 329 328 325 325 325 322 318 317 317 318 318 320 320 319 320 319 318 317 317 316 316 316 317 316 315 315 315 315 315 314 313 313 313 312 313 313 311 310 310 312 313 312 312 311 311 311 310 309 309 310 310 309 309 309 310 311 312 310 307 306 307 308
340 339 335 333 335 334 329 327 327 327 325 326 327 328 327 328 330 331 330 326 323 323 324 323 325 330 329 323 321 322 321 318 318 318 317 317 318 318 318 319 318 317 317 317 316 315 316 316 316 316 315 315 315 315 314 313 313 313 312 312 311 310 309 310 312 312 311 311 311 311 310 310 310 309 309 309 309 308 308 308 309 310 309 307 306 308 307
346 340 336 333 335 335 330 328 328 325 323 326 328 329 329 328 327 327 329 330 328 326 323 322 323 326 325 321 319 319 319 319 320 319 318 318 318 317 317 317 317 317 317 317 316 315 316 316 316 316 315 315 316 315 314 314 313 312 312 311 310 310 310 311 311 311 311 311 311 311 310 310 310 310 310 309 309 308 308 307 307 309 309 307 306 307 306
339 334 334 334 334 332 330 330 330 325 322 325 329 329 328 326 323 322 325 328 329 328 325 322 321 322 321 320 320 319 319 320 320 319 318 318 318 318 317 317 316 316 316 317 316 316 317 318 318 317 316 316 316 315 315 313 312 312 312 311 310 310 311 311 312 311 311 311 311 311 310 310 310 310 310 310 309 308 307 307 307 308 309 307 306 306 306
337 334 333 333 332 331 330 329 327 324 321 323 327 327 325 322 321 321 321 322 323 324 324 321 320 322 322 321 320 319 318 318 318 318 318 318 318 318 317 316 316 316 316 316 316 316 318 319 318 317 317 316 315 315 314 313 312 312 312 312 312 311 310 312 313 312 312 312 311 310 310 310 310 310 310 310 309 308 308 307 307 307 308 308 307 306 305
332 330 329 329 328 328 327 327 328 326 323 322 325 325 323 322 321 320 320 320 320 321 322 320 320 321 322 321 319 317 317 319 320 319 318 318 318 318 317 316 316 316 316 316 316 317 319 319 318 318 316 314 315 315 313 312 312 311 311 312 313 312 311 311 312 313 313 312 311 310 310 310 310 310 310 310 309 309 308 307 307 307 308 308 307 306 306
327 326 327 329 328 327 327 329 330 326 321 321 323 324 323 323 321 319 320 320 320 321 321 320 320 320 320 319 318 317 318 320 320 318 318 318 318 317 316 317 316 316 316 317 317 319 320 320 318 319 317 314 314 315 314 312 311 310 310 312 314 313 311 311 312 313 313 312 311 310 310 310 309 309 309 309 309 309 309 308 307 307 307 307 307 306 306
329 329 330 330 330 329 328 326 325 323 321 322 323 321 321 321 320 321 324 323 320 320 321 320 319 320 320 320 320 319 318 318 317 317 318 318 317 317 316 316 316 316 316 318 318 319 320 319 319 319 318 316 314 314 314 314 312 310 310 312 314 313 312 312 312 313 312 312 312 311 311 310 309 309 309 309 308 308 308 308 307 307 307 307 307 306 306
334 336 334 330 326 324 325 325 325 325 324 322 321 320 321 322 325 328 328 323 320 320 321 320 320 320 321 321 319 317 316 316 316 317 317 316 316 316 316 316 316 315 316 318 319 319 319 319 319 319 319 317 315 314 314 315 314 312 310 311 313 313 312 312 312 312 312 312 312 311 311 311 310 309 309 309 308 309 309 308 308 308 307 307 307 307 306
333 332 332 328 323 324 328 331 331 330 326 322 321 321 321 322 327 330 327 321 319 319 320 320 320 320 320 320 318 316 315 316 316 316 316 316 316 316 316 316 316 316 317 319 319 319 319 319 319 319 319 318 315 314 314 315 315 313 311 310 311 312 311 312 312 312 312 312 312 312 311 311 311 310 310 309 309 309 309 309 309 309 308 308 308 308 307
331 329 329 329 327 329 333 333 331 329 326 322 323 325 324 324 329 332 327 321 318 318 318 318 319 320 320 319 317 316 316 316 316 316 316 315 315 316 316 316 316 317 318 319 319 319 319 319 319 319 319 317 316 315 315 315 315 314 312 310 310 311 311 311 312 312 312 312 312 312 312 311 311 310 310 310 310 310 310 310 310 310 310 310 309 308 308
331 330 330 330 330 330 332 330 330 330 328 326 327 328 326 326 330 332 328 323 319 317 317 317 317 318 318 318 317 316 316 316 316 316 316 316 316 316 316 316 317 318 318 318 319 319 319 319 319 319 319 318 318 317 317 316 316 316 314 312 311 310 311 311 311 311 311 312 312 312 312 311 311 311 310 311 311 311 311 311 311 311 312 311 311 311 310
332 333 333 332 332 332 332 329 328 329 329 327 326 324 322 321 323 324 323 321 319 318 318 318 318 317 317 316 316 316 316 316 317 316 316 316 316 316 316 317 317 318 318 319 318 318 318 318 318 317 318 319 319 319 319 318 318 317 317 316 314 312 311 311 310 310 311 312 312 312 312 312 311 311 311 311 311 312 312 312 312 312 313 312 313 313 312
331 333 332 330 329 331 333 331 329 328 327 325 323 321 320 321 321 321 321 321 319 318 318 319 318 317 316 316 316 316 316 316 317 317 316 316 316 316 317 317 317 318 319 319 318 318 318 318 317 317 317 318 318 318 319 319 319 319 319 318 317 316 315 314 313 311 311 312 312 312 312 312 312 312 312 312 312 312 312 313 313 313 313 313 313 313 313
324 325 324 323 322 323 324 326 326 326 327 327 325 322 321 321 322 322 322 322 321 320 320 319 318 317 317 317 317 316 316 316 317 317 316 317 316 316 316 317 318 318 319 318 318 318 318 318 317 317 317 317 317 318 318 319 320 320 319 319 318 317 317 317 315 313 311 311 312 312 312 312 312 312 312 312 312 312 313 314 314 314 313 313 313 313 313
323 323 321 321 321 320 320 320 321 321 322 323 323 322 321 321 322 323 323 323 323 322 321 319 318 318 318 318 318 318 318 317 317 317 316 317 317 316 316 317 318 319 318 318 318 318 318 317 316 317 317 317 317 318 318 319 319 320 319 319 319 318 318 317 317 314 312 311 312 312 312 311 311 311 312 312 312 312 313 313 314 313 313 313 314 313 313
322 323 322 321 321 321 320 319 320 321 321 321 321 322 322 322 323 323 323 323 323 322 321 320 319 318 319 319 320 319 318 317 317 317 317 317 318 318 317 318 318 318 318 318 318 318 318 317 317 317 318 318 318 318 318 319 319 319 319 318 319 320 320 320 318 316 313 313 313 312 311 311 311 311 312 313 313 313 313 313 313 313 313 314 314 313 313
321 323 322 321 321 321 321 321 321 321 322 322 322 323 323 322 322 322 322 322 323 322 321 321 320 319 319 320 320 320 318 317 318 318 318 318 319 318 318 318 318 318 318 318 318 318 317 317 317 318 318 318 318 318 318 318 319 319 318 317 317 319 320 320 319 318 316 315 314 312 311 311 312 312 313 313 313 313 313 313 313 314 314 314 313 313 313
321 322 322 322 322 322 322 322 322 322 322 323 322 323 323 323 323 323 322 323 323 323 322 322 321 319 319 320 320 320 318 318 318 318 318 318 318 318 318 318 318 318 318 318 318 318 317 317 318 318 318 318 318 318 318 319 319 319 318 315 314 315 316 317 317 317 315 314 312 311 312 313 314 314 314 314 313 313 313 313 313 313 314 314 313 313 313
321 322 322 322 323 323 323 323 323 323 323 323 323 323 323 323 323 324 324 324 324 323 322 322 321 320 321 321 320 318 317 318 318 318 318 318 318 318 318 318 318 318 318 318 318 318 318 318 318 318 319 318 319 319 319 320 320 320 318 315 312 312 313 313 313 313 312 312 312 313 314 315 315 315 315 314 313 313 313 313 313 314 314 314 313 313 312
321 322 323 323 323 323 323 323 323 324 323 323 324 324 324 325 325 325 325 325 324 324 323 322 322 322 322 321 320 318 318 319 319 318 318 319 319 318 318 318 318 317 318 318 318 318 318 318 319 319 319 319 319 319 319 321 322 321 318 315 312 312 312 312 312 313 313 314 315 315 316 316 316 316 315 314 314 313 313 314 314 314 314 314 313 312 312
321 322 323 323 323 323 323 323 324 324 324 324 324 324 325 325 326 326 326 326 325 325 324 323 323 323 323 322 321 320 319 320 319 319 319 319 319 318 318 318 317 317 318 318 318 318 318 318 319 319 319 319 319 318 320 323 324 322 318 315 313 313 313 313 314 314 315 316 316 316 316 316 316 316 315 314 314 314 314 314 314 313 313 313 313 312 312
322 322 323 323 323 324 324 323 324 324 324 324 325 324 324 325 326 326 326 327 326 326 326 325 324 324 324 322 321 320 320 319 319 319 319 319 319 319 319 318 318 318 318 319 319 318 318 319 319 319 319 319 319 319 321 323 324 321 318 316 315 314 315 315 316 316 316 315 315 315 315 315 315 315 314 314 314 314 314 314 314 313 313 313 313 312 312
322 323 323 323 323 324 324 324 324 324 324 325 325 325 325 326 326 326 327 327 327 327 327 326 325 325 325 323 321 321 321 320 319 319 319 319 320 319 318 318 318 318 318 319 319 319 319 319 319 319 320 320 319 319 319 319 319 318 317 316 316 316 316 316 315 314 314 313 312 312 312 312 313 313 314 314 314 314 314 314 314 314 313 313 312 312 312
323 323 323 324 324 324 324 324 324 324 324 325 326 326 326 326 326 326 327 327 327 327 327 327 326 326 326 324 323 323 322 321 320 320 319 320 320 319 318 318 318 318 318 319 319 319 319 319 319 319 320 319 318 317 316 316 316 317 316 316 315 315 314 314 313 312 311 311 310 311 311 311 311 312 313 314 314 314 314 313 313 313 312 312 312 312 312
324 324 324 324 324 324 325 325 325 325 325 326 326 327 328 327 327 327 327 327 328 328 328 327 327 326 326 325 325 323 322 321 321 320 320 320 320 319 318 318 318 318 318 319 319 319 319 319 318 318 319 318 316 315 314 314 314 314 313 313 313 313 312 312 312 312 311 310 310 310 311 311 311 311 312 313 313 312 311 311 311 311 311 311 311 311 311
324 324 324 324 325 325 325 325 324 325 326 327 327 328 328 329 328 328 327 328 328 328 327 327 326 325 325 325 324 322 322 321 320 320 319 318 318 317 317 317 317 318 319 319 319 318 317 317 317 316 316 314 313 312 312 313 312 312 311 311 310 311 311 312 312 312 312 311 310 310 311 311 311 311 312 312 311 310 310 310 310 310 310 310 309 309 310
324 324 324 325 325 325 325 325 325 326 327 328 328 329 329 329 328 328 328 328 328 328 327 327 326 325 324 324 323 322 322 322 321 319 317 317 317 318 318 318 319 320 319 318 317 316 315 315 315 315 313 313 312 312 313 314 313 313 312 311 311 311 311 311 311 311 312 311 311 311 311 311 311 311 312 312 311 311 310 310 310 310 310 310 309 309 309
323 324 325 325 325 325 325 325 326 327 328 328 328 329 329 329 328 328 328 328 328 327 327 327 326 325 325 324 323 322 322 322 321 319 318 318 318 319 319 319 320 320 318 316 316 315 314 314 313 313 312 312 312 313 314 314 314 314 314 314 313 312 312 311 311 311 311 311 311 311 311 311 311 311 311 311 312 311 311 310 310 310 310 310 309 309 309
324 325 325 325 325 325 325 326 327 327 328 329 329 329 329 330 329 328 327 327 328 327 327 327 325 324 323 323 322 321 321 321 320 319 319 319 319 319 319 320 320 318 316 315 315 315 313 313 313 312 311 311 312 312 313 313 313 314 314 314 314 314 314 313 312 311 311 311 311 311 311 311 311 311 311 311 311 311 311 311 311 310 310 310 309 309 308
325 325 325 325 325 326 326 327 328 328 328 329 329 329 330 330 329 327 327 328 328 327 326 325 323 322 321 321 321 320 320 320 320 320 320 319 319 319 319 319 319 317 315 315 315 314 313 313 313 313 313 313 313 313 313 313 313 314 313 314 314 314 314 313 313 313 312 312 312 311 311 311 311 311 311 311 311 311 311 311 311 310 310 310 309 308 308
325 325 325 325 326 328 329 329 330 329 329 329 329 329 329 329 328 327 327 327 327 326 325 323 321 321 320 320 320 320 320 319 319 319 319 319 318 318 318 318 317 316 315 315 315 314 313 313 313 313 313 313 313 314 314 313 313 313 314 314 313 313 312 313 313 314 314 313 313 312 312 311 311 311 311 311 311 311 311 311 311 310 310 309 309 308 308
Wind_Speed
6 2 2 4 7 5 4 5 5 4 6 6 5 3 0 3 5 4 6 7 5 4 6 8 7 6 6 6 7 7 6 6 5 5 5 5 5 5 5 6 8 8 6 8 11 12 12 13 13 13 13 13 13 12 11 10 10 10 9 9 10 10 11 12 13 13 13 13 16 17 17 16 15 14 13 13 13 14 15 14 12 11 11 12 13 16 18
9 9 6 6 8 7 6 7 6 5 7 6 6 4 1 3 4 1 4 6 2 4 5 6 5 5 5 5 5 6 6 6 6 6 6 5 5 5 5 6 7 7 7 9 11 12 13 13 14 14 14 13 12 11 10 9 9 9 8 7 8 9 10 11 11 11 11 12 14 16 16 14 13 13 13 13 14 14 14 14 12 11 11 12 14 16 18
7 9 8 9 9 9 7 7 6 6 8 7 5 3 2 4 5 2 4 5 2 4 3 4 5 6 6 6 6 6 6 6 6 6 5 5 5 5 5 6 6 6 8 10 11 12 13 13 14 15 13 12 10 9 8 7 7 7 6 6 7 9 9 9 9 9 8 10 12 13 13 12 12 13 13 14 14 14 13 13 12 11 11 12 14 16 18
3 6 7 8 9 10 9 6 5 5 4 3 2 0 2 3 4 4 5 2 3 3 3 5 5 6 7 7 6 6 5 6 6 7 6 5 5 6 7 7 6 6 7 9 10 11 12 13 14 14 12 10 9 8 7 7 6 6 6 7 8 9 9 8 8 8 7 9 11 12 11 11 12 13 13 14 14 14 14 13 12 12 12 13 15 16 18
1 4 4 4 7 8 4 2 2 2 1 2 2 2 2 2 5 6 3 3 4 4 6 6 5 6 7 7 6 6 5 6 6 6 5 5 6 6 7 7 6 6 8 10 12 12 13 13 13 11 10 10 9 8 7 6 6 6 7 8 9 9 9 8 8 7 7 8 10 10 10 10 11 12 13 14 15 15 14 12 13 14 15 16 16 16 17
3 3 4 5 5 3 3 5 3 3 2 2 4 2 2 3 3 3 2 2 3 6 7 7 7 6 5 5 5 4 4 5 5 5 5 6 6 6 7 6 7 9 11 12 13 13 13 12 11 10 9 9 8 7 6 6 6 6 7 8 9 9 8 7 7 6 6 7 9 9 9 10 10 11 13 14 15 15 14 13 13 14 15 16 17 17 17
4 1 4 4 0 5 5 4 3 3 4 5 7 4 2 1 2 2 3 3 5 5 4 5 6 5 3 4 3 2 3 5 5 5 5 6 7 7 7 7 8 11 14 14 14 13 12 10 10 10 9 8 8 7 6 6 6 7 7 8 8 8 7 7 6 4 4 6 8 9 8 8 9 11 12 12 13 14 13 13 13 13 14 14 16 17 16
3 2 3 2 5 6 4 6 4 3 5 5 5 3 3 1 3 4 4 4 4 5 5 5 6 6 6 6 4 2 2 5 6 6 7 6 7 8 9 10 12 14 15 15 14 13 11 10 10 9 9 8 7 6 6 6 7 8 7 7 7 7 7 7 6 3 3 5 8 9 8 7 8 9 10 11 12 12 12 12 12 13 13 13 15 16 16
3 3 1 1 3 5 4 3 1 2 3 3 3 1 4 4 3 5 6 6 4 5 5 5 6 6 6 6 5 5 1 4 5 6 7 8 10 11 14 16 17 17 17 15 14 12 11 10 9 8 8 7 5 4 4 5 8 10 9 8 8 8 8 8 6 3 2 4 6 8 8 7 7 7 8 9 10 11 12 12 13 13 13 13 14 16 17
2 4 2 2 3 3 5 4 3 3 3 5 5 3 3 4 3 5 7 8 6 5 6 6 5 4 5 3 1 5 2 5 7 8 10 13 15 17 19 20 19 18 17 15 12 11 10 9 8 7 6 4 3 2 2 4 7 9 10 9 8 8 8 8 7 3 2 4 5 5 6 7 6 6 7 8 9 10 11 12 12 12 12 13 13 15 16
2 5 4 2 2 3 5 5 6 6 2 4 5 4 4 4 4 6 7 8 7 6 7 6 5 5 3 3 3 3 2 6 8 10 11 14 17 19 20 21 20 18 16 14 11 9 8 8 6 6 4 2 1 1 2 4 6 8 10 9 7 7 7 7 7 5 2 4 4 3 4 5 5 6 6 7 8 9 10 11 11 11 10 11 12 14 15
3 4 3 2 2 2 2 3 6 7 1 5 6 2 5 5 3 5 7 8 6 6 7 6 5 4 4 4 2 2 5 8 12 15 15 15 16 18 19 19 18 17 14 13 11 9 7 6 5 5 3 2 3 3 2 4 6 7 8 7 6 6 7 7 7 5 2 4 3 2 3 4 4 4 5 6 7 9 9 10 10 9 8 9 11 12 13
2 4 3 1 2 3 2 3 6 6 2 5 4 2 5 3 3 4 5 7 6 6 7 5 3 2 2 5 6 6 8 9 12 16 19 18 18 19 19 18 16 16 14 12 10 8 6 5 5 4 3 3 4 4 3 4 6 7 7 5 4 4 5 6 6 4 2 3 2 2 2 3 4 4 4 5 6 7 8 9 10 9 8 8 9 11 12
2 3 3 1 2 2 2 5 6 3 2 2 3 4 3 2 4 4 5 6 6 5 5 4 4 4 6 9 9 7 8 9 10 14 18 18 16 16 17 16 14 13 12 10 8 6 5 5 4 2 3 4 5 5 5 5 6 7 7 5 3 4 4 5 6 5 2 1 3 3 3 4 5 6 5 5 6 7 7 8 9 10 10 10 10 11 12
2 3 3 2 2 2 3 5 3 1 2 3 5 2 2 2 4 6 6 4 5 6 7 6 8 8 8 9 8 7 7 8 10 14 17 16 15 14 14 12 10 9 9 7 6 4 4 3 1 3 6 8 7 5 5 6 5 6 6 4 3 4 4 5 7 6 4 4 5 5 5 6 6 8 7 6 6 7 7 7 9 11 12 13 12 12 13
2 3 1 2 4 4 3 1 1 1 1 3 3 3 2 2 3 4 4 3 3 7 10 9 9 9 8 8 8 7 6 7 10 13 14 14 14 13 12 10 8 7 8 7 5 3 2 1 2 4 7 8 6 3 5 6 5 6 6 3 3 4 3 4 6 7 6 6 7 6 6 6 7 8 7 7 7 8 7 7 8 10 12 13 13 13 14
2 3 3 4 3 4 3 1 1 0 2 3 3 4 4 3 3 3 5 5 5 7 11 11 8 8 8 7 7 7 6 6 9 11 12 13 14 12 10 10 9 8 8 8 6 3 3 2 3 4 5 6 4 2 4 6 6 7 6 3 3 4 2 2 4 5 6 7 7 7 8 8 7 7 8 8 7 7 8 8 7 9 11 12 13 13 14
2 2 2 2 3 4 4 4 3 3 5 4 4 6 6 4 3 4 6 7 7 7 10 10 7 6 7 6 6 6 6 6 8 11 11 12 12 12 11 11 11 10 10 9 7 4 2 1 2 2 3 3 3 3 4 5 6 7 5 3 3 4 2 1 3 5 6 7 8 8 9 9 8 7 7 8 9 9 9 8 8 8 9 11 12 13 14
2 1 2 4 4 3 4 4 5 5 6 5 4 6 6 4 5 6 6 8 8 7 8 10 8 6 7 7 6 5 5 6 8 10 11 12 12 12 13 13 12 12 11 9 7 5 2 0 1 1 2 3 3 4 5 5 6 6 4 2 4 5 3 2 3 6 8 9 9 9 9 9 8 7 6 7 9 10 10 9 8 7 7 10 11 12 14
2 2 1 2 3 3 4 4 4 5 6 6 6 6 6 6 7 7 7 8 7 5 6 8 9 7 6 6 6 5 4 6 8 10 11 12 12 12 12 13 12 11 9 6 4 4 2 0 1 0 2 3 3 3 4 5 5 5 3 2 4 5 4 2 3 6 9 9 9 9 9 8 8 8 7 7 9 10 10 9 8 6 6 8 10 12 15
4 3 1 1 4 5 5 4 4 4 5 7 7 6 7 8 8 7 7 7 6 7 7 8 8 7 5 6 7 5 4 6 9 11 12 12 12 12 12 12 11 9 6 4 2 2 1 1 2 2 0 1 2 2 3 4 4 4 4 4 5 5 4 2 3 6 8 8 8 9 8 7 6 7 7 8 9 10 10 9 7 5 4 6 9 12 14
2 3 4 5 5 4 0 1 3 3 5 8 9 7 7 7 7 7 7 7 7 7 8 8 9 7 5 6 7 6 6 7 10 11 12 12 12 12 12 11 10 7 4 3 3 2 1 2 3 2 1 1 1 2 2 3 4 4 4 5 5 5 4 4 5 7 8 8 9 10 9 7 7 6 6 6 8 9 10 10 9 6 4 4 7 10 12
4 6 7 6 5 5 4 4 4 3 4 7 9 7 6 6 6 7 8 7 6 6 5 7 8 8 6 7 8 6 6 7 9 11 13 15 14 13 12 10 9 7 5 4 4 3 3 5 4 2 1 2 2 2 2 3 3 3 4 5 5 4 4 5 7 9 9 8 9 9 9 8 8 7 6 5 5 7 9 10 10 7 4 3 5 8 10
2 5 7 4 4 5 5 4 4 3 4 7 8 6 5 5 6 7 8 7 7 6 4 3 6 8 9 10 9 7 6 7 7 8 12 15 15 13 11 9 8 7 5 5 6 5 5 5 4 2 2 3 2 0 1 3 3 2 3 4 4 3 3 5 8 10 10 9 8 9 9 8 7 6 7 6 5 6 7 8 8 7 5 4 4 6 9
4 6 5 3 5 6 5 4 4 3 4 7 7 5 6 7 8 10 10 8 8 8 6 5 4 7 9 10 10 9 8 6 5 6 9 11 13 12 11 10 9 6 4 5 6 5 5 4 2 2 3 3 1 1 1 3 3 2 2 3 3 3 5 6 8 9 10 9 7 7 9 8 6 6 7 7 7 6 7 6 7 6 5 5 5 6 8
7 8 8 7 7 6 5 5 4 2 4 8 7 6 8 11 11 12 11 9 8 8 8 8 7 7 9 11 10 9 8 6 4 5 8 11 13 13 11 10 9 6 4 5 5 5 5 3 1 2 4 3 1 2 1 3 3 4 3 3 4 4 5 7 8 8 9 9 7 7 8 9 7 8 8 8 8 8 8 8 8 7 6 6 7 7 7
9 10 11 9 6 2 1 2 3 3 5 9 11 10 11 14 15 14 12 10 10 9 8 9 10 9 9 10 10 9 8 7 6 6 8 11 13 12 10 8 7 6 5 5 5 5 4 3 3 3 4 3 1 0 2 3 4 5 4 4 4 4 5 6 8 9 9 8 7 7 8 8 8 9 9 8 9 10 10 10 10 9 8 8 8 8 7
7 5 6 7 7 5 3 4 8 9 8 10 13 14 13 14 13 11 9 9 9 9 9 9 10 11 10 10 10 10 9 7 7 7 8 9 10 8 7 6 7 7 7 5 4 5 5 4 4 5 4 3 3 2 3 4 5 5 5 4 5 5 5 6 8 9 10 9 8 8 10 10 10 10 10 10 11 12 12 12 12 12 12 11 10 10 9
4 4 4 5 8 9 9 9 10 9 7 9 12 13 12 11 8 6 5 6 7 8 8 7 7 8 9 10 11 11 10 9 8 8 8 7 6 6 6 6 7 8 8 7 6 6 6 5 6 7 5 4 4 4 5 6 6 6 6 5 6 7 6 6 8 10 11 10 9 9 11 12 12 12 13 13 13 14 15 15 15 15 15 14 13 13 12
4 5 7 7 7 10 10 8 7 6 6 8 9 8 8 8 6 5 4 5 6 7 7 6 7 7 8 9 10 10 10 10 9 8 7 6 6 5 6 6 7 8 8 8 8 7 7 7 9 8 7 5 5 6 6 7 7 7 7 7 7 8 8 8 9 10 12 13 12 11 12 14 14 14 15 16 16 16 17 17 17 17 17 17 16 16 16
6 7 8 7 6 7 8 6 6 5 6 7 7 6 5 6 6 5 4 4 5 7 7 8 8 7 7 8 8 8 8 8 7 7 7 6 5 5 6 6 7 7 7 7 7 7 7 9 10 10 7 6 6 7 8 8 8 7 7 7 7 8 8 9 10 11 12 14 14 13 13 14 15 16 17 18 19 19 19 18 19 20 20 20 20 19 18
9 8 8 7 6 6 6 5 6 6 5 5 6 7 6 6 6 7 6 5 6 8 8 9 8 7 6 8 8 7 6 6 7 7 7 6 6 6 7 7 8 7 7 7 7 8 9 10 10 9 7 6 7 8 9 9 9 9 9 9 9 8 9 10 11 12 13 15 15 15 14 15 16 17 18 20 21 22 20 19 20 21 21 21 22 21 20
9 6 4 4 5 5 4 4 5 6 7 6 6 7 8 8 8 9 9 9 8 9 9 9 8 7 7 8 8 7 6 5 5 6 7 8 8 8 9 9 9 8 8 8 8 9 9 10 9 8 7 7 8 9 10 11 12 12 13 12 12 12 12 12 12 13 14 16 17 17 16 17 17 18 20 21 23 23 22 21 21 19 19 20 22 22 20
8 7 7 8 6 6 7 6 5 6 6 4 4 6 7 6 7 10 10 10 9 10 10 9 8 8 7 7 6 5 5 4 4 5 7 8 8 8 8 9 10 10 9 9 9 9 9 9 8 8 8 8 8 9 10 12 13 15 15 15 14 14 15 15 14 14 14 16 18 19 19 20 20 20 21 23 25 25 24 22 20 17 18 21 23 23 21
8 7 7 7 6 7 9 9 7 7 7 5 4 6 6 6 7 8 9 8 9 10 10 9 8 8 8 7 6 6 6 7 7 7 7 8 9 9 8 8 9 9 9 10 9 8 8 8 8 9 9 8 9 10 11 12 14 16 17 17 17 16 15 15 15 14 14 15 17 20 21 21 21 22 23 24 24 24 24 22 18 16 18 22 22 22 20
10 9 7 6 6 8 10 11 11 12 10 8 7 8 8 8 8 7 8 8 9 9 9 9 9 9 9 8 8 8 8 8 8 8 8 8 9 9 8 8 9 9 10 11 10 8 7 8 8 9 10 11 12 12 13 14 16 18 18 17 18 17 15 14 14 14 13 13 15 17 19 19 20 21 22 23 23 23 21 18 16 17 19 21 20 20 19
11 12 10 7 8 9 9 9 11 13 11 9 9 10 9 9 9 9 9 9 9 9 9 9 9 10 10 10 10 9 8 6 5 5 5 7 7 7 7 8 8 9 11 12 11 8 7 8 9 10 12 14 14 14 15 16 17 17 16 15 14 14 14 14 13 13 13 14 15 17 17 18 19 21 22 23 22 20 17 14 14 16 19 19 18 18 17
10 12 12 10 9 9 9 8 10 12 12 10 10 10 10 11 10 10 10 9 9 9 10 10 10 11 11 10 9 8 7 5 4 4 4 5 4 5 6 7 9 10 12 12 11 9 8 9 10 12 14 15 15 15 15 15 15 14 13 13 12 10 10 11 11 12 14 15 16 17 17 18 20 21 23 23 20 17 15 15 15 16 18 18 16 15 15
9 10 11 11 10 11 10 9 10 12 13 13 11 10 10 10 9 8 8 8 8 8 10 11 10 10 10 9 8 7 6 5 4 5 4 3 3 5 8 9 10 10 11 11 10 9 9 10 11 13 14 14 14 13 13 12 12 12 12 12 10 8 7 8 9 11 13 15 16 17 18 20 21 21 21 20 16 14 16 17 17 16 17 17 15 13 13
9 10 11 11 11 11 11 10 9 10 11 11 11 10 9 8 7 6 6 6 6 7 9 11 11 10 9 9 9 7 6 6 7 6 5 4 5 7 9 10 8 7 8 8 8 9 9 10 12 13 13 13 12 12 11 11 11 11 11 11 9 8 7 8 9 11 14 15 17 18 19 20 20 20 19 17 14 13 15 18 17 16 17 16 14 12 11
10 11 11 11 11 11 11 10 9 8 8 8 8 8 7 7 6 5 5 4 4 4 6 9 10 10 9 9 9 7 6 7 7 7 6 6 6 6 8 10 8 6 7 8 9 9 10 11 12 13 13 12 11 11 11 10 10 10 10 10 9 8 9 10 11 13 15 17 18 20 20 19 18 19 18 16 14 14 15 15 15 15 16 15 13 12 11
11 12 11 11 10 10 10 10 9 8 8 7 6 6 6 6 5 5 5 5 4 3 4 6 7 8 7 8 8 7 6 6 7 7 6 6 6 6 9 11 9 7 8 9 9 9 10 11 11 12 12 11 10 11 12 11 10 10 10 10 9 9 10 12 13 16 17 19 20 21 22 21 20 20 19 18 16 16 15 14 14 15 15 14 13 12 12
13 13 12 12 11 11 11 10 10 9 8 7 6 6 7 8 7 6 5 5 5 5 5 5 6 6 5 6 7 7 7 6 6 5 6 6 7 8 10 10 8 7 8 9 9 9 11 12 13 13 13 13 13 13 12 10 9 9 10 10 10 11 12 13 15 17 19 20 20 20 20 20 20 20 20 20 18 17 15 14 14 14 14 14 13 13 13
15 15 14 14 14 13 12 11 10 9 8 7 6 6 7 8 8 8 7 7 7 6 6 6 7 7 6 7 7 7 6 6 5 6 7 8 9 8 7 6 6 8 9 9 10 11 13 14 14 14 15 15 14 13 10 7 6 8 9 10 11 12 13 14 15 16 17 19 19 19 19 19 19 19 19 19 17 15 13 12 13 14 14 15 14 14 14
16 15 16 16 15 13 12 11 10 8 7 7 6 6 5 6 7 8 8 8 8 6 6 6 7 8 8 8 7 6 5 5 5 6 7 9 9 7 5 5 8 10 11 11 13 15 16 16 14 14 14 13 11 9 8 7 7 9 11 12 13 13 13 13 14 14 15 17 18 19 19 19 19 19 17 15 13 12 12 12 14 15 16 17 17 17 16
15 14 15 15 13 12 11 10 8 6 6 6 7 6 5 5 5 5 6 6 6 4 4 4 5 6 7 7 5 4 4 5 5 7 8 9 9 8 7 8 10 11 12 14 16 17 16 14 12 10 10 9 7 7 7 8 9 11 12 13 13 13 13 12 12 12 13 14 16 17 18 18 19 18 16 13 12 12 13 14 16 17 17 18 18 18 18
14 14 14 14 12 10 8 7 7 6 6 7 7 6 5 4 4 4 4 4 4 3 4 4 3 4 5 6 5 4 4 5 6 7 7 7 7 7 8 9 11 13 15 17 16 13 11 9 8 7 7 6 6 6 6 7 9 11 12 13 13 13 12 12 13 14 14 14 14 15 16 17 17 16 14 13 13 13 14 15 16 16 16 17 17 17 17
15 15 15 13 11 9 7 7 7 8 8 7 7 5 5 5 5 5 4 4 4 4 5 4 4 5 6 6 5 5 5 6 6 5 4 5 6 8 9 11 13 15 15 14 10 8 7 6 6 6 6 6 4 4 5 7 10 12 13 14 14 14 14 14 15 16 16 16 15 15 15 16 15 15 14 14 14 14 15 15 16 17 17 17 16 15 15
16 15 13 11 10 8 8 9 9 9 8 7 6 5 5 6 6 5 5 5 5 5 5 5 5 6 6 6 7 7 7 8 8 8 8 8 10 11 13 14 14 14 12 9 6 5 6 6 5 5 5 5 4 5 7 9 12 13 15 16 17 17 17 17 17 18 19 19 18 16 16 16 16 15 15 15 16 17 16 17 17 18 18 17 17 15 14
14 12 11 11 10 9 9 10 9 9 8 7 6 6 7 7 6 5 5 5 5 5 5 5 6 6 7 7 7 8 8 9 10 11 12 12 13 14 15 15 14 12 9 7 5 5 5 5 4 4 4 5 6 8 10 12 14 16 18 20 20 21 21 21 21 21 21 22 21 20 18 17 17 16 16 17 17 18 18 18 18 18 17 17 15 14 14
13 13 12 11 10 9 8 8 7 6 6 6 6 6 7 7 5 5 5 6 6 6 5 5 5 6 6 6 6 7 8 9 11 13 14 14 14 14 14 14 13 11 8 7 6 5 4 3 3 4 5 7 9 11 13 15 17 19 20 21 21 22 22 23 23 24 24 24 24 24 22 21 19 18 18 18 18 19 19 18 18 17 16 15 15 14 13
13 12 11 9 8 7 6 5 5 5 5 5 6 6 7 6 6 5 5 6 6 6 5 4 4 4 4 5 6 7 8 10 11 12 13 14 14 14 14 14 13 11 9 7 7 6 5 4 4 5 7 8 10 13 15 17 18 19 20 21 22 22 22 22 22 22 23 24 25 26 26 25 23 21 19 19 19 19 19 18 17 16 15 14 14 13 13
Wind_Direction
12 24 77 79 89 82 68 75 67 36 37 59 94 102 6 121 130 227 223 161 174 228 182 172 185 173 156 154 146 141 141 138 138 140 139 140 138 134 129 121 117 119 125 128 127 129 137 137 134 133 130 121 111 104 97 86 70 56 42 36 39 39 38 36 30 29 31 30 23 16 11 11 19 28 32 33 31 27 27 31 34 33 27 21 19 17 13
28 19 29 64 88 86 52 41 51 70 74 79 93 99 73 86 98 173 161 142 201 249 182 174 170 140 128 130 130 134 140 143 145 148 151 150 143 136 130 121 121 132 135 131 131 133 134 132 128 126 123 117 109 98 86 71 58 51 42 42 48 47 43 38 32 33 34 28 19 11 8 10 19 29 30 29 26 23 23 24 26 29 24 15 10 7 4
22 6 32 60 76 89 79 47 40 68 80 74 69 91 119 81 68 69 100 96 312 277 175 133 113 115 120 127 136 143 149 152 152 151 155 152 139 129 122 119 122 126 123 122 122 120 121 122 122 122 120 112 101 88 80 73 66 58 46 45 48 45 43 40 35 33 32 27 19 11 9 12 19 25 26 26 24 21 22 24 24 26 22 15 14 12 9
12 354 38 70 77 80 75 47 18 22 50 85 82 59 171 140 127 102 86 88 260 241 125 104 109 130 138 145 152 151 155 164 161 161 163 152 137 128 126 127 126 120 115 113 111 111 116 121 120 118 115 107 99 94 89 81 68 54 41 41 43 41 42 45 42 37 31 27 21 15 13 16 20 23 24 25 23 19 21 24 23 24 21 19 20 18 17
41 340 12 60 71 68 50 329 317 343 349 144 123 30 27 117 131 129 141 227 221 159 129 120 126 145 154 165 169 162 167 173 166 162 156 144 138 135 134 133 124 116 111 109 109 113 118 119 117 114 109 104 99 94 85 71 57 46 38 39 41 40 44 50 52 46 37 32 26 22 21 20 20 24 24 25 23 20 21 23 23 25 25 24 24 22 20
157 274 339 23 48 71 239 253 228 202 212 167 131 93 11 27 70 123 166 198 160 145 145 147 151 161 168 175 178 165 162 167 161 151 141 136 137 133 126 121 114 111 108 106 109 114 118 119 118 113 105 99 97 90 76 61 46 33 30 36 38 40 47 54 59 56 44 39 38 33 27 21 20 23 24 25 27 24 22 23 24 24 22 22 21 18 19
149 275 17 49 285 238 250 304 304 186 164 134 115 93 18 35 89 118 116 132 150 140 124 131 138 132 112 116 127 132 148 159 150 138 138 143 141 133 124 117 114 114 112 111 113 118 123 127 122 113 104 99 96 86 68 48 28 19 25 34 32 32 42 48 53 61 55 51 54 48 35 25 25 27 25 26 28 28 26 25 24 20 18 16 14 13 18
137 87 62 145 236 266 309 352 358 106 115 109 97 56 331 248 160 150 133 138 144 113 90 102 120 119 103 85 57 31 147 159 153 149 155 152 138 131 129 127 123 122 121 121 124 129 133 133 125 112 101 98 94 82 63 38 23 23 28 28 22 24 35 40 43 60 76 70 69 60 44 36 38 37 33 32 33 31 29 27 23 19 16 14 14 18 24
136 122 122 261 314 322 325 326 275 157 145 157 135 129 273 257 174 149 141 141 138 113 106 118 128 126 103 76 29 353 48 139 135 129 132 129 122 122 125 126 125 126 128 131 133 134 130 126 121 108 95 90 85 77 61 35 29 33 32 22 21 31 40 40 37 47 95 96 84 70 55 49 53 47 42 41 38 33 29 25 21 19 20 25 28 29 29
109 103 86 10 11 307 263 254 276 285 218 179 138 115 275 262 183 157 150 146 144 131 126 137 140 117 94 99 330 331 19 115 107 99 107 111 114 119 122 125 128 131 134 134 131 127 122 118 115 105 95 89 76 67 54 34 30 32 26 17 24 42 44 33 24 24 111 117 100 79 60 57 65 63 52 46 40 35 30 25 22 25 32 39 40 34 30
116 110 121 171 184 228 244 255 302 317 267 158 106 57 304 268 182 155 148 147 149 145 144 149 139 114 118 196 247 318 58 105 102 99 97 97 106 119 127 132 135 135 133 127 121 116 113 114 112 103 101 97 54 30 26 24 22 25 23 17 23 38 33 22 19 20 89 126 109 81 61 58 68 72 57 44 40 38 33 27 26 32 40 41 38 33 29
123 106 116 201 204 218 255 272 302 309 310 98 75 27 278 257 193 163 151 150 152 148 147 146 133 137 177 204 198 107 94 93 97 105 107 109 120 131 137 138 135 131 127 119 112 107 102 104 106 94 81 50 30 25 26 27 22 23 24 19 20 23 16 15 20 22 89 125 95 51 52 49 51 59 48 34 31 34 34 29 27 32 37 34 30 26 21
91 101 115 240 242 229 269 301 295 294 344 70 81 218 238 218 170 158 137 135 141 143 144 143 134 159 165 132 119 112 104 97 101 111 119 130 139 140 140 140 132 125 119 108 100 98 92 94 101 86 54 29 26 22 22 29 23 15 12 11 7 8 9 15 21 32 94 108 51 13 27 32 24 23 23 16 14 21 29 26 22 24 26 22 19 18 17
70 106 115 43 271 238 306 313 290 289 60 92 204 219 221 147 134 119 104 119 134 125 113 115 119 117 108 107 109 110 110 109 111 115 121 130 137 138 138 137 126 117 110 100 97 100 95 94 92 48 358 352 358 1 6 14 5 354 355 1 360 5 23 37 45 56 66 8 333 326 331 350 354 348 348 351 352 2 17 21 15 13 14 12 10 10 13
109 72 69 78 214 239 348 343 312 22 99 201 205 162 47 73 111 103 93 110 133 118 100 99 111 112 105 104 107 108 109 112 117 122 129 135 139 138 135 130 121 111 109 110 110 101 94 95 56 343 333 337 344 359 10 6 349 341 349 360 10 22 49 62 59 57 38 357 346 341 336 334 332 328 325 323 327 336 352 8 10 8 8 9 8 6 7
116 100 117 197 218 257 318 5 210 235 231 204 172 122 78 60 86 100 92 79 105 120 118 114 113 112 110 112 114 112 111 114 119 126 134 137 137 137 136 133 131 128 130 136 130 91 68 42 350 328 328 339 354 18 10 359 353 351 353 3 21 28 55 74 58 53 49 34 23 14 359 341 330 330 329 323 319 320 328 346 2 4 3 4 4 3 3
133 151 198 231 254 292 322 92 150 114 60 73 92 106 102 79 73 105 108 97 98 113 116 116 116 119 122 123 122 123 125 127 129 131 136 139 142 146 148 150 156 158 156 160 156 122 80 35 358 333 333 351 13 19 356 2 7 1 358 7 21 20 40 72 45 42 45 34 19 9 2 353 349 356 358 350 341 329 323 330 346 355 357 358 358 357 358
130 91 49 356 350 347 2 42 62 69 74 74 83 94 95 89 92 106 114 118 122 123 121 119 120 127 133 126 121 127 130 126 129 134 142 150 155 158 163 169 176 178 176 178 181 174 135 53 14 360 2 18 23 356 350 9 12 2 359 19 23 13 5 338 9 15 15 10 4 357 357 2 6 8 2 356 352 346 337 333 337 346 350 351 352 352 354
109 72 10 354 355 344 358 39 61 63 58 53 72 93 100 103 102 105 114 120 122 124 125 126 127 133 134 128 124 131 134 133 139 148 157 165 167 170 176 181 182 184 186 190 200 206 194 112 20 36 53 46 35 17 10 13 7 356 359 32 22 7 345 304 348 1 359 358 356 352 354 3 7 2 352 345 345 347 347 344 342 345 344 342 344 345 347
102 151 241 346 30 26 8 40 80 84 75 69 68 83 99 101 95 94 102 111 118 123 120 124 128 130 134 139 143 149 148 148 157 166 171 174 175 176 182 184 182 184 190 194 208 217 199 209 309 327 83 60 40 30 23 15 4 356 356 358 355 353 341 315 340 355 356 354 349 348 355 4 4 354 343 337 340 346 350 351 351 347 336 337 339 339 340
83 112 156 118 80 50 18 30 72 90 101 97 85 84 95 99 96 89 79 77 101 125 131 130 129 133 153 161 150 150 157 160 169 178 179 179 181 181 183 185 185 186 191 203 234 246 246 322 304 281 127 59 27 18 16 9 6 11 6 344 345 356 360 348 349 355 358 356 348 345 349 356 359 353 343 338 342 347 348 350 351 338 321 332 339 335 336
144 196 190 170 133 103 53 142 103 105 118 111 103 102 105 107 113 109 89 71 76 102 124 136 135 139 165 168 153 155 176 183 185 187 184 181 183 185 184 186 190 194 202 226 253 275 317 320 306 283 251 271 311 338 355 360 9 19 14 1 11 33 43 29 10 1 356 352 348 346 343 337 334 338 339 339 342 345 346 348 346 329 297 313 332 330 332
209 200 176 162 135 132 178 185 146 146 139 115 112 123 125 122 128 123 114 107 95 86 102 134 146 152 161 161 157 164 189 201 199 194 190 187 186 187 187 189 196 204 213 235 256 276 302 310 305 288 281 298 299 307 345 357 1 13 19 21 33 50 46 24 11 2 351 342 340 343 341 330 321 320 322 324 329 338 344 351 351 337 301 302 335 334 332
153 146 151 152 121 124 154 162 147 153 143 116 113 121 122 120 127 126 123 127 135 129 107 114 150 160 158 158 160 164 180 202 210 205 199 195 189 186 191 197 204 210 223 248 264 278 303 316 306 264 294 323 316 290 8 357 350 3 20 25 26 20 5 3 1 358 352 342 334 334 334 329 319 313 309 303 303 320 336 349 356 345 309 297 332 337 329
119 120 128 115 99 108 119 114 98 92 117 120 119 120 125 126 129 128 125 125 137 143 129 105 126 158 160 159 162 164 167 182 199 200 194 190 185 187 197 208 212 216 235 262 273 282 297 312 294 262 313 340 20 115 48 356 338 336 350 2 360 344 339 343 345 348 349 344 330 325 327 323 312 304 300 290 285 298 315 329 344 344 314 293 310 326 326
110 109 96 76 75 92 105 100 79 55 106 117 114 114 123 125 122 120 121 124 131 139 135 127 129 149 164 163 160 155 148 143 157 176 172 170 178 191 205 217 220 221 239 265 285 296 297 291 260 287 325 351 69 109 31 341 327 324 316 311 322 327 330 333 332 336 343 339 323 315 320 318 306 299 296 287 278 284 297 307 319 326 312 292 295 308 320
112 115 106 92 83 96 153 144 137 137 126 119 116 114 117 118 115 109 105 108 114 119 126 131 130 133 145 152 148 143 139 137 144 160 161 165 178 195 213 229 232 230 235 260 294 301 289 277 275 294 319 335 325 357 355 332 322 327 318 297 296 311 324 329 328 329 333 330 318 308 309 307 301 297 294 287 280 279 284 291 298 304 303 295 291 294 305
112 110 111 126 151 174 176 119 116 118 120 123 124 122 118 113 109 103 98 100 106 110 114 125 131 130 132 138 140 137 136 139 145 153 159 169 184 202 223 242 245 238 236 255 288 287 272 274 287 296 310 318 301 300 327 325 317 320 318 295 284 294 307 320 326 325 320 315 308 302 298 296 294 294 292 287 284 283 283 283 286 292 296 296 291 287 290
74 56 71 108 132 129 113 103 105 107 111 121 124 124 122 114 101 94 105 114 118 117 116 123 136 137 135 141 146 145 143 148 154 158 164 175 191 209 230 246 247 243 243 254 274 280 278 282 293 302 313 321 309 298 305 313 313 313 311 297 282 284 293 303 312 314 311 307 301 295 292 291 289 289 289 288 286 286 286 286 287 289 292 294 291 284 282
42 71 88 94 107 113 113 116 120 120 124 129 125 121 123 122 119 124 139 142 139 136 131 133 138 140 143 148 152 155 157 160 161 164 172 183 196 210 230 242 242 245 256 268 278 286 290 287 291 300 313 326 325 311 303 306 308 307 307 300 284 280 285 291 296 303 305 304 300 293 289 288 287 287 288 288 288 289 289 291 293 293 292 291 287 281 280
72 75 84 84 92 105 112 121 130 130 135 138 129 117 111 115 127 145 162 169 160 150 146 143 141 145 155 155 154 159 166 168 170 178 187 197 207 218 234 243 244 253 277 295 299 298 298 294 295 302 308 314 320 320 316 311 304 297 297 298 290 282 280 279 281 288 295 298 299 295 287 286 287 287 286 287 289 291 293 296 300 301 299 295 288 283 283
85 69 67 68 72 85 102 125 135 137 146 149 147 153 158 152 154 165 177 183 174 164 157 152 148 151 159 155 152 157 167 178 192 202 210 219 231 240 247 251 256 269 291 308 310 306 304 305 309 316 314 299 297 307 314 314 308 298 291 288 287 286 286 283 283 285 286 289 292 292 287 286 288 289 288 289 291 293 294 295 298 302 304 302 298 295 292
109 96 92 98 93 95 119 159 163 161 171 177 173 178 180 172 165 170 177 176 170 169 172 169 163 161 163 162 163 166 172 183 202 219 231 240 250 258 259 260 267 279 290 298 303 305 307 312 320 330 324 301 292 296 300 303 305 302 297 293 290 289 291 294 295 294 288 283 285 288 288 287 288 289 290 293 295 295 294 292 292 297 303 306 307 309 305
139 157 170 169 159 149 162 182 190 181 180 182 169 168 176 178 171 169 171 169 169 179 190 188 176 169 169 174 182 187 188 193 209 230 246 256 266 273 271 270 274 278 283 291 296 300 306 312 321 329 326 313 302 299 299 300 301 300 299 298 293 289 290 293 295 296 292 286 285 287 288 288 288 290 294 297 299 299 296 292 291 295 300 303 308 315 315
117 120 138 153 159 161 163 168 176 181 180 177 167 166 178 189 180 168 170 181 192 199 201 195 186 185 190 198 211 216 217 224 237 253 266 274 280 283 282 278 275 276 283 292 296 298 302 306 313 321 323 316 308 304 303 303 303 303 303 300 293 289 290 290 287 288 290 289 287 289 293 295 296 298 300 301 301 301 298 295 293 294 297 300 307 316 321
115 109 113 128 146 161 168 169 175 181 181 177 172 170 176 187 189 185 195 213 223 221 211 200 196 201 208 219 228 231 237 246 255 264 273 279 285 287 282 275 273 278 288 296 300 302 298 298 305 314 316 314 313 313 313 313 311 312 313 309 300 292 290 288 284 281 285 291 295 299 304 306 304 304 304 304 305 307 306 302 297 295 297 304 312 319 322
122 124 125 127 137 152 164 171 176 178 176 173 173 175 180 193 205 212 219 226 232 228 218 211 209 212 219 229 237 242 250 254 251 254 268 279 286 286 278 272 272 275 282 293 306 312 297 290 298 307 308 309 313 316 320 323 322 319 319 318 311 301 294 290 286 279 280 292 304 309 309 307 305 305 307 308 310 311 309 301 296 298 305 314 320 322 321
118 122 125 126 128 133 139 154 168 170 167 167 174 183 192 201 208 213 218 225 231 228 222 220 221 223 226 236 245 248 247 241 230 236 256 269 274 273 270 271 275 278 282 294 311 316 300 294 301 308 309 312 314 315 320 324 324 322 320 320 319 313 302 296 293 286 286 295 304 308 307 306 305 307 310 313 315 315 308 299 296 302 311 319 323 322 321
112 116 125 129 127 127 132 143 157 164 164 165 172 185 195 202 205 209 218 230 239 235 226 221 221 223 230 241 247 241 230 222 221 224 228 234 247 264 273 277 284 291 298 304 310 308 300 300 306 310 314 319 319 318 320 321 319 318 321 322 321 318 309 303 300 296 295 298 302 305 308 310 310 311 312 313 315 315 308 302 300 303 310 317 321 321 319
131 135 140 140 139 140 144 149 156 163 166 169 175 182 187 190 194 202 218 237 248 243 230 221 216 217 227 238 241 231 217 218 221 218 217 231 250 267 280 287 294 312 323 320 313 305 301 303 308 310 315 321 322 320 318 315 311 314 320 321 317 313 309 306 302 300 301 305 306 308 312 314 315 315 315 310 304 301 300 301 302 304 308 314 319 318 314
148 150 150 150 151 155 157 159 161 164 166 171 176 177 176 178 184 193 203 214 232 243 232 220 217 221 228 235 235 230 228 231 225 215 219 240 256 269 282 289 297 318 329 326 321 314 307 306 308 311 314 318 318 314 311 307 305 311 318 319 313 308 307 309 310 309 310 311 310 308 308 309 309 311 313 309 298 292 294 299 301 301 303 311 317 315 310
154 157 158 156 156 158 161 165 168 168 170 176 182 184 185 193 204 209 204 201 209 224 217 209 217 229 236 232 228 224 221 216 208 207 222 247 266 279 287 292 299 309 314 316 320 319 312 309 309 312 315 316 311 307 309 309 306 309 315 316 314 313 314 316 317 316 313 312 311 310 311 311 308 309 313 312 302 294 294 298 298 298 303 311 316 313 307
163 164 161 158 160 165 170 174 177 178 179 186 195 203 208 212 219 221 214 207 212 218 211 202 209 220 221 214 209 207 204 202 206 220 244 264 278 284 285 291 306 323 323 320 319 315 311 312 313 314 317 317 311 308 311 312 305 305 313 321 328 330 327 324 322 321 320 323 326 327 328 326 322 319 321 322 315 308 305 304 302 304 309 314 314 311 306
169 167 164 164 168 173 177 181 183 184 187 193 199 206 212 217 222 226 226 221 220 220 220 216 215 211 205 200 200 204 214 230 243 253 265 278 290 294 291 297 321 334 334 328 322 317 316 315 312 309 311 313 312 311 316 318 310 311 321 330 333 332 329 327 329 333 337 341 344 344 342 341 339 335 334 333 331 326 322 316 312 312 315 316 314 312 309
171 171 169 170 174 178 182 185 187 187 192 196 195 194 203 213 221 227 231 230 226 225 227 231 230 223 214 210 212 223 240 255 260 260 266 278 289 298 303 308 313 318 320 320 318 317 315 313 308 306 309 313 316 320 332 338 332 327 330 331 330 330 331 333 337 343 349 350 350 349 347 347 346 345 344 344 344 342 335 326 321 320 320 318 316 315 314
174 174 174 177 182 185 187 191 196 195 194 195 195 196 202 207 214 223 226 223 221 225 232 240 242 231 218 215 224 239 248 258 267 269 269 274 279 285 295 302 304 308 315 320 319 317 318 320 320 319 319 323 333 346 353 351 343 336 335 334 333 333 334 332 330 333 340 345 348 347 346 344 344 345 345 346 346 343 337 331 329 329 328 326 324 323 321
174 177 181 187 190 191 192 198 201 195 189 193 202 213 218 214 204 202 202 200 200 205 213 217 216 204 199 203 214 229 248 275 286 278 266 267 276 285 294 300 303 310 319 323 325 329 336 340 338 335 336 344 357 5 3 353 342 337 335 334 333 332 329 323 319 320 325 330 334 336 336 336 337 336 333 332 333 333 331 328 328 328 329 329 329 328 327
179 183 189 193 196 197 197 196 193 191 196 207 220 229 225 206 187 180 187 196 197 193 191 194 194 191 194 204 215 225 247 276 286 270 246 254 278 291 296 300 306 315 323 327 330 337 343 339 334 338 347 355 4 6 352 341 336 334 332 330 327 325 321 317 313 312 313 316 320 324 325 326 326 323 318 316 318 320 320 321 320 321 323 325 325 324 322
183 187 190 193 197 200 199 194 193 199 211 226 234 226 208 194 188 190 196 199 195 191 191 197 203 205 208 218 227 233 243 255 262 262 264 273 284 291 296 301 308 315 319 318 316 321 328 330 337 347 351 345 333 325 326 327 327 327 326 323 320 317 314 311 308 307 305 305 308 311 313 314 316 313 308 306 307 309 311 314 316 317 320 322 321 319 315
181 186 192 197 200 203 204 205 208 216 226 233 229 213 200 195 196 201 199 194 195 202 204 203 205 211 216 223 231 240 249 255 261 269 276 281 286 291 296 301 306 307 302 292 289 306 327 341 350 350 343 328 318 315 318 319 319 319 319 317 315 312 309 306 304 303 302 301 301 302 302 304 306 306 303 301 301 303 305 308 312 315 318 318 317 315 309
183 195 205 209 210 211 216 222 228 234 235 228 214 203 200 199 201 199 195 197 206 212 209 206 210 217 222 230 241 249 256 262 268 273 276 280 285 290 294 296 297 293 283 271 273 289 308 331 340 332 326 323 320 319 319 319 317 317 319 320 318 316 313 309 304 301 300 300 300 299 298 297 298 300 301 301 300 300 300 303 308 313 314 314 312 309 303
193 206 212 212 208 208 214 220 223 224 222 213 202 195 195 197 203 204 204 211 216 215 210 218 233 235 236 250 261 262 261 263 268 270 273 277 284 288 289 289 289 285 271 260 262 271 276 283 298 307 313 317 319 319 319 319 319 321 322 322 321 321 322 321 316 309 304 303 302 301 300 298 294 293 295 298 301 301 300 300 303 306 307 308 307 304 298